COSMOS 2251 DEB, 37483

Orbit data source: Space-Track

COSMOS 2251 DEB, 37483 is space debris in LEO originally from a launch on Wed, 16 Jun 1993 UTC launched from the Plesetsk Missile And Space Complex (PKMTR). The debris from Iridium 33, an American commercial communications satellite, has been tracked extensively since its accidental collision with the defunct Russian satellite Cosmos 2251 in 2009. This event, occurring at high speed in low Earth orbit (LEO), generated thousands of pieces of space debris, significantly increasing the risk of further collisions. The Iridium 33 debris cloud has impacted space traffic management and orbital debris mitigation strategies, making it a subject of ongoing study in space situational awareness.

Loading next visibility...
Identifier
37483, 1993-036BLL
Orbit
LEO
Country
Flag of CISCIS
Related business
Manufacturer
Unknown
Mission
Spacecraft
Bus & Motor
Unknown
Mass
Unknown
Launch date (UTC)
1993-06-16 (33 years ago)
Launch vehicle
Unknown
Launch site
Plesetsk Missile And Space Complex (PKMTR)
Object type
Payload
Rocket body
Debris
Shape & HBR
Unknown shape, 0.1 m
Radar Cross Section
Small (<0.1 m²)

Expand to show TLE details & history
Last TLE update: 14 hours ago

TLE from 14 hours ago
0 COSMOS 2251 DEB
1 37483U 93036BLL 26165.26927662  .00000590  00000-0  17254-3 0  9992
2 37483  73.9725 160.8311 0093283 324.8881  34.6148 14.43855832679280
Epoch: 2026-06-14T06:27Z
TLE epoch observation values (Epoch: 2026-06-14T06:27:45.499Z)
Latitude
-0.00008°
Longitude
161.31906°
Altitude
693.907 km
Speed
7.538 km/s
True Right ascension
10h 43m 19s
True Declination
0° 00' 00"
Sunlit
Object was in daylight at epoch
Visualization orbit readout
Latitude
Unknown
Longitude
Unknown
Altitude
Unknown
Speed
Unknown
Apparent Right ascension
Unknown
Apparent Declination
Unknown
Sunlit
N/A
Visualization observer readout
Local Sidereal Time
06:41:36
Azimuth
Unknown
Elevation
Unknown
Doppler factor
Unknown
Orbital elements
Apogee altitude
809.84 km
Perigee altitude
676.976 km
Semi-major axis
7,121.545 km
Eccentricity
0.00933
Inclination
73.9725°
RAAN
160.8311°
Arg. of periapsis
324.8881°
True anomaly
35.22789°
Mean anomaly
34.6148°
Eccentric anomaly
34.92075°
Mean motion
3.61145 °/min
Orbital period
99.68 mins
BSTAR
0.00017254

Documentation

Showing up to 5 results
|